Freeport, IL

1:54 PM CDT on June 22, 2017 (GMT -0500)
Albertus

Weather History for KFEP - March, 2013

Change the Weather History Date:

Thursday, March 21, 2013

  Actual Average Record
Temperature  
Mean Temperature 20 °F -  
Max Temperature 28 °F 45 °F 80 °F (2012)
Min Temperature 11 °F 26 °F 9 °F (1986)
Degree Days  
Heating Degree Days 46    
Moisture  
Dew Point 10 °F    
Average Humidity 67    
Maximum Humidity 83    
Minimum Humidity 53    
Precipitation  
Precipitation 0.00 in - - ()
Sea Level Pressure  
Sea Level Pressure 30.06 in    
Wind  
Wind Speed 6 mph (WNW)    
Max Wind Speed 10 mph    
Max Gust Speed -    
Visibility 10 miles    
Events      
Averages and records for this station are not official NWS values.
T = Trace of Precipitation, MM = Missing Value Source: NWS Daily Summary

Daily Weather History Graph

Daily Weather History Graph

Search for Another Location

Airport or City:

Trip Planner

Search our weather history database for the weather conditions in past years. The results will help you decide how hot, cold, wet, or windy it might be!

Date:

Astronomy

Mar. 21, 2013 Rise Set
Actual Time 6:59 AM CDT 7:11 PM CDT
Civil Twilight 6:31 AM CDT 7:40 PM CDT
Nautical Twilight 5:58 AM CDT 8:12 PM CDT
Astronomical Twilight 5:25 AM CDT 8:46 PM CDT
Moon 1:36 PM CDT (3/21) 3:26 AM CDT (3/21)
Length of Visible Light 13h 08m
Length of Day
12h 12m
Waxing Gibbous, 69% of the Moon is Illuminated
Mar 21
Waxing Gibbous
Mar 27
Full
Apr 2
Last Quarter
Apr 10
New
Apr 18
First Quarter

Hourly Weather History & Observations

Time (CDT) Temp. Windchill Dew Point Humidity Pressure Visibility Wind Dir Wind Speed Gust Speed Precip Events Conditions
12:15 AM 14.4 °F 4.3 °F 7.9 °F 75% 30.08 in 10.0 mi West 6.9 mph - N/A   Scattered Clouds
12:35 AM 13.8 °F 3.7 °F 7.7 °F 77% 30.08 in 10.0 mi West 6.9 mph - N/A   Clear
12:55 AM 13.8 °F 2.7 °F 7.5 °F 76% 30.08 in 10.0 mi West 8.1 mph - N/A   Clear
1:15 AM 13.8 °F 3.7 °F 7.3 °F 75% 30.08 in 10.0 mi West 6.9 mph - N/A   Clear
1:35 AM 13.6 °F 3.5 °F 7.7 °F 77% 30.08 in 10.0 mi West 6.9 mph - N/A   Clear
1:55 AM 13.6 °F 3.5 °F 7.7 °F 77% 30.08 in 10.0 mi West 6.9 mph - N/A   Clear
2:15 AM 13.6 °F 4.6 °F 8.2 °F 79% 30.07 in 10.0 mi West 5.8 mph - N/A   Clear
2:35 AM 13.6 °F 4.6 °F 8.2 °F 79% 30.07 in 10.0 mi West 5.8 mph - N/A   Clear
2:55 AM 13.6 °F 4.6 °F 8.4 °F 80% 30.07 in 10.0 mi West 5.8 mph - N/A   Clear
3:15 AM 13.6 °F 4.6 °F 8.1 °F 78% 30.06 in 10.0 mi West 5.8 mph - N/A   Clear
3:35 AM 13.6 °F 4.6 °F 8.1 °F 78% 30.06 in 10.0 mi WSW 5.8 mph - N/A   Clear
3:55 AM 11.1 °F 1.7 °F 5.9 °F 80% 30.06 in 10.0 mi WSW 5.8 mph - N/A   Clear
4:15 AM 13.6 °F 2.5 °F 7.9 °F 78% 30.06 in 10.0 mi West 8.1 mph - N/A   Clear
4:35 AM 13.6 °F 3.5 °F 7.5 °F 77% 30.06 in 10.0 mi WNW 6.9 mph - N/A   Clear
4:55 AM 11.1 °F 0.4 °F 5.4 °F 78% 30.06 in 10.0 mi WNW 6.9 mph - N/A   Clear
5:15 AM 11.5 °F 0.9 °F 5.5 °F 77% 30.06 in 10.0 mi West 6.9 mph - N/A   Clear
5:35 AM 11.5 °F 0.9 °F 5.2 °F 76% 30.06 in 10.0 mi West 6.9 mph - N/A   Clear
5:55 AM 11.1 °F 1.7 °F 5.5 °F 78% 30.06 in 10.0 mi West 5.8 mph - N/A   Clear
6:15 AM 11.1 °F 1.7 °F 5.5 °F 78% 30.07 in 10.0 mi West 5.8 mph - N/A   Clear
6:35 AM 11.1 °F 0.4 °F 5.5 °F 78% 30.08 in 10.0 mi West 6.9 mph - N/A   Clear
6:55 AM 11.1 °F 3.1 °F 5.2 °F 77% 30.07 in 10.0 mi West 4.6 mph - N/A   Clear
7:15 AM 11.1 °F 3.1 °F 5.0 °F 76% 30.07 in 10.0 mi WNW 4.6 mph - N/A   Clear
7:35 AM 11.8 °F 2.5 °F 5.4 °F 75% 30.07 in 10.0 mi West 5.8 mph - N/A   Clear
7:55 AM 13.6 °F 2.5 °F 7.3 °F 76% 30.06 in 10.0 mi West 8.1 mph - N/A   Clear
8:15 AM 13.6 °F 3.5 °F 7.3 °F 76% 30.07 in 10.0 mi West 6.9 mph - N/A   Clear
8:35 AM 13.6 °F 6.0 °F 6.4 °F 73% 30.08 in 10.0 mi WNW 4.6 mph - N/A   Clear
8:55 AM 16.2 °F 7.6 °F 8.2 °F 71% 30.08 in 10.0 mi West 5.8 mph - N/A   Clear
9:15 AM 18.5 °F 6.8 °F 9.7 °F 68% 30.08 in 10.0 mi NW 10.4 mph - N/A   Clear
9:35 AM 18.5 °F 13.3 °F 9.1 °F 67% 30.08 in 10.0 mi NW 3.5 mph - N/A   Clear
9:55 AM 18.5 °F 11.7 °F 8.1 °F 64% 30.08 in 10.0 mi NW 4.6 mph - N/A   Clear
10:15 AM 20.8 °F 12.1 °F 9.1 °F 61% 30.08 in 10.0 mi WNW 6.9 mph - N/A   Clear
10:35 AM 21.2 °F 12.6 °F 8.4 °F 58% 30.08 in 10.0 mi West 6.9 mph - N/A   Clear
10:55 AM 21.9 °F 13.4 °F 8.4 °F 56% 30.08 in 10.0 mi WNW 6.9 mph - N/A   Clear
11:15 AM 23.7 °F 14.0 °F 10.4 °F 57% 30.08 in 10.0 mi West 9.2 mph - N/A   Clear
11:35 AM 23.7 °F 15.6 °F 10.0 °F 56% 30.08 in 10.0 mi WNW 6.9 mph - N/A   Clear
11:55 AM 24.4 °F 15.6 °F 9.7 °F 53% 30.08 in 10.0 mi West 8.1 mph - N/A   Clear
12:15 PM 24.4 °F 16.5 °F 9.9 °F 54% 30.07 in 10.0 mi West 6.9 mph - N/A   Clear
12:35 PM 25.3 °F 16.0 °F 10.9 °F 54% 30.08 in 10.0 mi West 9.2 mph - N/A   Clear
12:55 PM 25.2 °F 15.7 °F 10.4 °F 54% 30.08 in 10.0 mi West 9.2 mph - N/A   Clear
1:15 PM 25.7 °F 19.0 °F 10.8 °F 53% 30.07 in 10.0 mi WSW 5.8 mph - N/A   Clear
1:35 PM 26.4 °F 19.8 °F 12.0 °F 55% 30.07 in 10.0 mi West 5.8 mph - N/A   Clear
1:55 PM 26.2 °F 16.4 °F 12.9 °F 57% 30.07 in 10.0 mi WSW 10.4 mph - N/A   Clear
2:15 PM 26.2 °F 18.6 °F 12.6 °F 56% 30.07 in 10.0 mi West 6.9 mph - N/A   Clear
2:35 PM 26.8 °F 18.5 °F 13.1 °F 56% 30.06 in 10.0 mi West 8.1 mph - N/A   Clear
2:55 PM 26.8 °F - 12.9 °F 56% 30.06 in 10.0 mi Calm Calm - N/A   Clear
3:15 PM 27.3 °F 20.9 °F 13.5 °F 56% 30.06 in 10.0 mi West 5.8 mph - N/A   Clear
3:35 PM 27.5 °F 19.3 °F 13.5 °F 56% 30.05 in 10.0 mi WNW 8.1 mph - N/A   Clear
3:55 PM 27.3 °F 23.4 °F 12.9 °F 55% 30.05 in 10.0 mi NW 3.5 mph - N/A   Clear
4:15 PM 27.5 °F 21.1 °F 13.1 °F 55% 30.04 in 10.0 mi NW 5.8 mph - N/A   Clear
4:35 PM 28.6 °F 22.4 °F 14.2 °F 55% 30.03 in 10.0 mi NW 5.8 mph - N/A   Clear
4:55 PM 27.9 °F 19.8 °F 13.6 °F 55% 30.03 in 10.0 mi NW 8.1 mph - N/A   Clear
5:15 PM 26.6 °F 21.2 °F 14.0 °F 59% 30.03 in 10.0 mi North 4.6 mph - N/A   Clear
5:35 PM 27.5 °F 19.3 °F 14.4 °F 58% 30.03 in 10.0 mi NW 8.1 mph - N/A   Clear
5:55 PM 27.3 °F 20.9 °F 13.6 °F 56% 30.03 in 10.0 mi WNW 5.8 mph - N/A   Clear
6:15 PM 27.0 °F 21.6 °F 14.2 °F 59% 30.03 in 10.0 mi WNW 4.6 mph - N/A   Clear
6:35 PM 26.2 °F 19.6 °F 13.3 °F 58% 30.03 in 10.0 mi NW 5.8 mph - N/A   Clear
6:55 PM 25.0 °F - 14.2 °F 64% 30.03 in 10.0 mi Calm Calm - N/A   Clear
7:15 PM 24.3 °F 18.4 °F 13.5 °F 63% 30.03 in 10.0 mi WNW 4.6 mph - N/A   Clear
7:35 PM 23.7 °F - 13.6 °F 65% 30.03 in 10.0 mi Calm Calm - N/A   Clear
7:55 PM 23.0 °F - 12.2 °F 63% 30.03 in 10.0 mi Calm Calm - N/A   Clear
8:15 PM 23.9 °F - 14.2 °F 66% 30.03 in 10.0 mi Calm Calm - N/A   Clear
8:35 PM 23.7 °F - 14.2 °F 67% 30.04 in 10.0 mi Calm Calm - N/A   Clear
8:55 PM 23.0 °F - 14.4 °F 70% 30.04 in 10.0 mi Calm Calm - N/A   Clear
9:15 PM 23.7 °F - 12.6 °F 62% 30.05 in 10.0 mi Calm Calm - N/A   Clear
9:35 PM 23.5 °F - 15.4 °F 71% 30.05 in 10.0 mi Calm Calm - N/A   Clear
9:55 PM 23.5 °F - 14.4 °F 68% 30.05 in 10.0 mi Calm Calm - N/A   Clear
10:15 PM 21.2 °F - 14.5 °F 75% 30.05 in 10.0 mi Calm Calm - N/A   Clear
10:35 PM 22.3 °F - 14.7 °F 73% 30.05 in 10.0 mi Calm Calm - N/A   Clear
10:55 PM 21.4 °F - 14.7 °F 75% 30.06 in 10.0 mi Calm Calm - N/A   Clear
11:15 PM 20.5 °F - 14.7 °F 78% 30.06 in 10.0 mi Calm Calm - N/A   Clear
11:35 PM 20.8 °F - 16.5 °F 83% 30.06 in 10.0 mi Calm Calm - N/A   Clear
11:55 PM 21.2 °F - 16.2 °F 81% 30.06 in 10.0 mi Calm Calm - N/A   Clear